Regional Weather Roundup
Issued by NWS

Home | Current Version | Previous Version | Graphics & Text | Print | Product List | Glossary On
Versions: 1 2 3 4 5 6 7 8 9 10 11 12 13 14 15 16 17 18 19 20 21 22 23 24 25 26 27 28 29 30 31 32 33 34 35 36 37 38 39 40 41 42 43 44 45 46 47 48 49 50
000
ASUS43 KLOT 240803
RWRIL

ILLINOIS REGIONAL WEATHER ROUNDUP
NATIONAL WEATHER SERVICE CHICAGO/ROMEOVILLE IL
200 AM CST FRI FEB 24 2017

NOTE: "FAIR" INDICATES FEW OR NO CLOUDS BELOW 12,000 FEET WITH NO
SIGNIFICANT WEATHER AND/OR OBSTRUCTIONS TO VISIBILITY.

* THESE STATIONS ARE NOT UNDER NWS QUALITY CONTROL. THEY ALSO MAY NOT
  REPORT WEATHER SUCH AS PRECIPITATION OR FOG.

ILZ001-002-007-009-015-016-024-240900-
NORTHWEST ILLINOIS

CITY           SKY/WX    TMP DP  RH WIND       PRES   REMARKS
MOLINE         CLOUDY    41  36  82 E16       29.49F
STERLING*      CLOUDY    39  37  92 E22       29.52F WCI  29
$$

ILZ003-004-008-010-011-017-018-240900-
NORTH CENTRAL ILLINOIS

CITY           SKY/WX    TMP DP  RH WIND       PRES   REMARKS
ROCKFORD       TSTM      38  34  85 NE18G25   29.60S WCI  28
FREEPORT*      LGT RAIN  35  34  96 NE15G23   29.59F WCI  25
ROCHELLE*      CLOUDY    38  37  95 NE17G24   29.56S WCI  29
DE KALB*       CLOUDY    38  37  96 E24       29.56F WCI  27
PERU*          CLOUDY    40  39  95 E18       29.52F FOG
$$

ILZ005-006-012>014-019>023-240900-
NORTHEAST ILLINOIS

CITY           SKY/WX    TMP DP  RH WIND       PRES   REMARKS
CHICAGO-OHARE  LGT RAIN  40  37  89 NE15G22   29.59F
CHICAGO-MIDWAY CLOUDY    41  38  89 NE9       29.59F
AURORA         CLOUDY    41  38  89 NE15G23   29.55F
LANSING*       CLOUDY    40  40 100 N12       29.58F FOG
JOLIET*        CLOUDY    43  42  97 NE6       29.57F FOG
WAUKEGAN       LGT RAIN  36  35  96 NE17G29   29.63R WCI  26
DUPAGE AIRPORT CLOUDY    39  35  86 NE16      29.58F WCI  30
KANKAKEE*      PTCLDY    51  50  98 SE9       29.53R
WHEELING       LGT RAIN  37  36  96 NE15      29.62F WCI  28
MORRIS*        CLOUDY    42  41  95 NE6       29.55S FOG
ROMEOVILLE*    CLOUDY    41  41 100 NE13      29.57S
NORTHERLY ISL    N/A     38  37  97 N16         N/A  WCI  29
$$

LMZ740>746-240900-
SOUTHERN LAKE MICHIGAN

STATION/POSITION SKY/WX   TEMP    WIND        PRES    VSBY  WAVE
                          AIR SEA DIR/SP/G                  HT/PER
                          (F)     (DEG/KT/KT) (MB)    (MI)  (FT/S)
HARRISON CRIB              39      30/ 21/ 22   N/A
BURNHAM HARBOR             39      20/  6/ 17   N/A
CALUMET HARBOR             38     360/  9/ 13 1001.8F
BURNS HARBOR               38      10/  4/  5 1002.4F
MICHIGAN CITY              51     130/  8/ 11   N/A
$$

ILZ025>027-034>036-040-047-049-050-058-095>099-240900-
WEST-CENTRAL ILLINOIS

CITY           SKY/WX    TMP DP  RH WIND       PRES   REMARKS
QUINCY         CLOUDY    62  55  77 S20G25    29.40S
GALESBURG*     CLOUDY    43  43  99 NE9       29.44F FOG
MACOMB*        CLEAR     47  46  97 E9        29.44F FOG
JACKSONVILLE*  PTCLDY    60  54  79 SE14      29.43F
PITTSFIELD*    CLOUDY    63  55  75 S16G22    29.44S
$$

ILZ028>032-037-038-041>044-048-051>054-059>061-240900-
CENTRAL ILLINOIS

CITY           SKY/WX    TMP DP  RH WIND       PRES   REMARKS
PONTIAC        PTCLDY    46  45  98 NE7       29.52F FOG
BLOOMINGTON    CLEAR     56  53  90 SE20      29.49F
DECATUR        CLEAR     60  53  77 S14       29.50F
PEORIA         CLOUDY    47  46  97 E9        29.46F
LACON*         CLOUDY    42  41  98 NE6       29.49F FOG
LINCOLN*       PTCLDY    58  55  91 S12       29.47F
SPRINGFIELD    CLOUDY    60  54  80 S14       29.47F
TAYLORVILLE    CLEAR     59  55  84 S14       29.50S
$$

ILZ033-039-045-046-055>057-062-063-240900-
EAST-CENTRAL ILLINOIS

CITY           SKY/WX    TMP DP  RH WIND       PRES   REMARKS
CHAMPAIGN      PTCLDY    55  51  86 SE12      29.53F
RANTOUL*       PTCLDY    58  55  91 SE12      29.53F
MATTOON        CLOUDY    61  55  81 S16G26    29.53F
PARIS*         PTCLDY    61  56  82 S20       29.57F
$$

ILZ079-100>102-240900-
SOUTHWEST ILLINOIS

CITY           SKY/WX    TMP DP  RH WIND       PRES   REMARKS
ALTON          PTCLDY    57  53  85 SE7       29.48F
BELLEVILLE     CLEAR     61  59  95 SE8       29.49F
CAHOKIA*       CLEAR     65  52  62 S9        29.48F
SPARTA*        CLEAR     62  57  84 S20G33    29.52F
$$

ILZ064>066-069>071-074>076-080>082-084>086-088>090-092>094-240900-
SOUTH-CENTRAL ILLINOIS

CITY           SKY/WX    TMP DP  RH WIND       PRES   REMARKS
CARBONDALE     CLEAR     63  57  81 S20G29    29.56F
CAIRO*         CLOUDY    62  57  86 S14       29.63S
EFFINGHAM*     CLOUDY    61  56  84 SE14      29.57F
MARION         PTCLDY    64  61  88 S22G32    29.59F
MT. VERNON     PTCLDY    62  56  80 S13       29.56F
CENTRALIA*     CLEAR     63  58  84 S14       29.53F
SALEM*         CLEAR     64  56  76 S13       29.55F
METROPOLIS*    MOCLDY    64  57  80 CALM      29.65R
$$

ILZ067-068-072-073-078-083-087-091-240900-
SOUTHEAST ILLINOIS

CITY           SKY/WX    TMP DP  RH WIND       PRES   REMARKS
LAWRENCEVILLE  CLOUDY    61  55  81 S10       29.63R
FLORA*         CLOUDY    63  57  81 S15       29.57F
FAIRFIELD*     CLOUDY    63  57  81 S8        29.58F
HARRISBURG*    CLOUDY    64  57  80 SW9       29.62S
ROBINSON*      CLOUDY    61  55  80 S14       29.62F
CARMI*         MOCLDY    60  56  87 S8        29.62S
$$

ABBREVIATIONS USED IN REMARKS
   TC - TEMPERATURE IN CELSIUS
  WCI - WIND CHILL INDEX
   HX - HEAT INDEX
  VSB - VISIBILITY
$$




USA.gov is the U.S. government's official web portal to all federal, state and local government web resources and services.